TimeEDT,TemperatureF,Dew PointF,Humidity,Sea Level PressureIn,VisibilityMPH,Wind Direction,Wind SpeedMPH,Gust SpeedMPH,PrecipitationIn,Events,Conditions,WindDirDegrees,DateUTC
12:47 AM,48.2,46.4,93,30.04,1.8,Calm,Calm,-,N/A,,Clear,0,2013-09-23 04:47:00
12:53 AM,48.0,46.9,96,30.04,3.0,Calm,Calm,-,N/A,,Clear,0,2013-09-23 04:53:00
1:53 AM,48.0,46.9,96,30.05,4.0,Calm,Calm,-,N/A,,Clear,0,2013-09-23 05:53:00
2:53 AM,46.9,46.0,97,30.06,10.0,Calm,Calm,-,N/A,,Clear,0,2013-09-23 06:53:00
3:53 AM,46.9,45.0,93,30.06,10.0,Calm,Calm,-,N/A,,Clear,0,2013-09-23 07:53:00
4:53 AM,46.0,45.0,96,30.06,10.0,Calm,Calm,-,0.01,,Clear,0,2013-09-23 08:53:00
5:53 AM,46.0,45.0,96,30.08,8.0,Calm,Calm,-,N/A,,Clear,0,2013-09-23 09:53:00
6:53 AM,45.0,45.0,100,30.09,10.0,Calm,Calm,-,N/A,,Clear,0,2013-09-23 10:53:00
7:53 AM,45.0,44.1,97,30.12,10.0,Calm,Calm,-,N/A,Fog,Patches of Fog,0,2013-09-23 11:53:00
8:53 AM,51.1,48.0,89,30.12,10.0,NNE,4.6,-,N/A,,Clear,30,2013-09-23 12:53:00
9:53 AM,55.9,48.9,77,30.14,10.0,North,5.8,-,N/A,,Clear,10,2013-09-23 13:53:00
10:53 AM,60.1,46.0,60,30.14,10.0,East,6.9,-,N/A,,Clear,80,2013-09-23 14:53:00
11:53 AM,63.0,46.9,56,30.13,10.0,ENE,8.1,-,N/A,,Clear,70,2013-09-23 15:53:00
12:53 PM,64.0,46.9,54,30.12,10.0,Variable,4.6,-,N/A,,Clear,0,2013-09-23 16:53:00
1:53 PM,66.0,46.9,50,30.11,10.0,Calm,Calm,-,N/A,,Clear,0,2013-09-23 17:53:00
2:53 PM,68.0,46.9,47,30.09,10.0,NE,9.2,-,N/A,,Clear,40,2013-09-23 18:53:00
3:53 PM,69.1,46.9,45,30.07,10.0,ENE,8.1,-,N/A,,Clear,60,2013-09-23 19:53:00
4:53 PM,69.1,46.0,44,30.06,10.0,NE,8.1,-,N/A,,Clear,50,2013-09-23 20:53:00
5:53 PM,69.1,48.0,47,30.06,10.0,NE,8.1,-,N/A,,Clear,40,2013-09-23 21:53:00
6:53 PM,66.9,46.9,49,30.05,10.0,East,8.1,-,N/A,,Clear,80,2013-09-23 22:53:00
7:53 PM,57.9,51.1,78,30.06,10.0,East,3.5,-,N/A,,Clear,90,2013-09-23 23:53:00
8:53 PM,55.0,51.1,86,30.08,10.0,NE,3.5,-,N/A,,Clear,40,2013-09-24 00:53:00
9:53 PM,54.0,50.0,86,30.09,10.0,NNE,5.8,-,N/A,,Clear,20,2013-09-24 01:53:00
10:53 PM,54.0,48.0,80,30.10,10.0,NE,5.8,-,N/A,,Clear,40,2013-09-24 02:53:00
11:53 PM,52.0,46.9,83,30.10,10.0,NNE,5.8,-,N/A,,Clear,30,2013-09-24 03:53:00